KB2KRJ Weather Reports


Display with metric or nautical units.
time (UTC)temp
F
wind
direction
speed
MPH
gust
MPH
rain 1hr
in
rain 24hr
in
rain mn
in
humidity
%
barometer
mb
20260902043018 64 253 0.0 0.0 0.00 0.00 0.00 100 1018.5
20260902041512 65 248 0.0 0.0 0.00 0.00 0.00 100 1018.4
20260902040008 65 248 0.0 0.0 0.00 0.00 0.00 100 1018.3
20260902034503 65 248 0.0 0.0 0.00 0.00 0.00 100 1018.1
20260902033108 65 248 0.0 0.0 0.00 0.00 0.00 100 1017.9
20260902031555 65 248 0.0 0.0 0.00 0.00 0.00 100 1018.0
20260902030051 66 248 0.0 0.0 0.00 0.00 0.00 100 1017.8
20260902024546 66 252 0.0 0.0 0.00 0.00 0.00 100 1017.9
20260902023043 66 252 0.0 0.0 0.00 0.00 0.00 100 1017.8
20260902021537 67 252 0.0 0.0 0.00 0.00 0.00 100 1017.9
20260902020033 67 252 0.0 0.0 0.00 0.00 0.00 100 1018.0
20260902014534 67 252 0.0 0.0 0.00 0.00 0.00 100 1017.7
20260902013024 67 252 0.0 0.0 0.00 0.00 0.00 100 1017.6
20260902011520 68 252 0.0 0.0 0.00 0.00 0.00 100 1017.5
20260902010018 68 346 0.0 0.0 0.00 0.00 0.00 100 1017.2
20260902004511 68 346 0.0 0.0 0.00 0.00 0.00 100 1016.8
20260902003009 69 349 0.0 0.0 0.00 0.00 0.00 100 1016.6
20260902001502 69 349 0.0 0.0 0.00 0.00 0.00 100 1016.3
20260902000059 69 349 0.0 0.0 0.00 0.00 0.00 100 1016.3
20260901234605 69 349 0.0 0.0 0.00 0.00 0.00 100 1016.3
20260901233050 69 349 0.0 0.0 0.00 0.00 0.00 100 1016.4
20260901231545 69 349 0.0 0.0 0.00 0.00 0.00 100 1016.3
20260901230046 70 349 0.0 0.0 0.00 0.00 0.00 100 1016.3
20260901224536 70 349 0.0 0.0 0.00 0.00 0.00 100 1016.3
20260901223032 70 349 0.0 0.0 0.00 0.00 0.00 100 1016.4
20260901221528 70 349 0.0 0.0 0.00 0.00 0.00 100 1016.4
20260901220023 70 349 0.0 0.0 0.00 0.00 0.00 100 1016.0
20260901214518 70 349 0.0 0.0 0.00 0.00 0.00 100 1016.0
20260901213043 70 349 0.0 0.0 0.00 0.00 0.00 100 1015.9
20260901211514 70 349 0.0 0.0 0.00 0.00 0.00 100 1016.0
20260901210016 70 349 0.0 0.0 0.00 0.00 0.00 100 1015.8
20260901204502 70 349 0.0 0.0 0.00 0.00 0.00 100 1015.8
20260901203102 70 349 0.0 0.0 0.00 0.00 0.00 100 1015.7
20260901201552 70 349 0.0 0.0 0.00 0.00 0.00 100 1015.6
20260901200054 70 349 0.0 0.0 0.00 0.00 0.00 100 1015.6
20260901194543 70 349 0.0 0.0 0.00 0.00 0.00 100 1015.5
20260901193055 70 349 0.0 0.0 0.00 0.00 0.00 100 1015.4
20260901191537 70 349 0.0 0.0 0.00 0.00 0.00 100 1015.4
20260901190031 70 348 0.0 0.0 0.00 0.00 0.00 100 1015.3
20260901184532 70 348 0.0 2.0 0.00 0.00 0.00 100 1015.2
20260901183021 71 348 0.0 0.0 0.00 0.00 0.00 100 1015.2
20260901181518 71 348 0.0 1.0 0.00 0.00 0.00 100 1015.2
20260901180012 71 348 0.0 1.0 0.00 0.00 0.00 100 1015.1
20260901174508 71 105 0.0 0.0 0.00 0.00 0.00 100 1014.9
20260901173003 71 105 0.0 0.0 0.00 0.00 0.00 100 1014.9
20260901171608 71 105 0.0 1.0 0.00 0.00 0.00 100 1014.8
20260901170055 71 146 0.0 1.0 0.00 0.00 0.00 100 1014.7
20260901164551 71 146 0.0 1.0 0.00 0.00 0.00 100 1014.8
20260901163046 70 149 0.0 0.0 0.00 0.00 0.00 100 1014.7
20260901161542 70 149 0.0 0.0 0.00 0.00 0.00 100 1015.1
20260901160038 70 149 0.0 0.0 0.00 0.00 0.00 100 1015.2
20260901154533 70 149 0.0 0.0 0.00 0.00 0.00 100 1015.3
20260901153029 70 149 0.0 0.0 0.00 0.00 0.00 100 1015.3
20260901151524 69 149 0.0 0.0 0.00 0.00 0.00 100 1015.4
20260901150020 69 149 0.0 0.0 0.00 0.00 0.00 100 1015.3
20260901144517 69 149 0.0 0.0 0.00 0.00 0.00 100 1015.4
20260901143011 69 149 0.0 0.0 0.00 0.00 0.00 100 1015.5
20260901141507 69 149 0.0 0.0 0.00 0.00 0.00 100 1015.4
20260901140003 69 149 0.0 0.0 0.00 0.00 0.00 100 1015.4
20260901134611 69 149 0.0 0.0 0.00 0.00 0.00 100 1015.7
20260901133054 69 149 0.0 0.0 0.00 0.00 0.00 100 1015.7
20260901131554 69 149 0.0 0.0 0.00 0.00 0.00 100 1015.7
20260901130045 68 149 0.0 0.0 0.00 0.00 0.00 100 1016.0
20260901124541 68 149 0.0 0.0 0.00 0.00 0.00 100 1015.9
20260901123036 68 149 0.0 0.0 0.00 0.00 0.00 100 1016.0
20260901121536 0 0.0 0.0 0.00 0.00 0.00 1015.8
20260901120038 0 0.0 0.0 0.00 0.00 0.00 1016.1
20260901114523 0 0.0 0.0 0.00 0.00 0.00 1015.8
20260901113019 0 0.0 0.0 0.00 0.00 0.00 1016.0
20260901111515 0 0.0 0.0 0.00 0.00 0.00 1015.6
20260901110011 0 0.0 0.0 0.00 0.00 0.00 1015.6
20260901104505 0 0.0 0.0 0.00 0.00 0.00 1015.4
20260901103003 0 0.0 0.0 0.00 0.00 0.00 1015.5
20260901101556 0 0.0 0.0 0.00 0.00 0.00 1015.2
20260901100052 0 0.0 0.0 0.00 0.00 0.00 1015.3
20260901094545 67 149 0.0 0.0 0.00 0.00 0.00 100 1015.2
20260901093041 67 149 0.0 0.0 0.00 0.00 0.00 100 1015.3
20260901091537 67 149 0.0 0.0 0.00 0.00 0.00 100 1015.5
20260901090033 67 149 0.0 0.0 0.00 0.00 0.00 100 1015.5
20260901084528 67 149 0.0 0.0 0.00 0.00 0.00 100 1015.5
20260901083025 67 149 0.0 0.0 0.00 0.00 0.00 100 1015.6
20260901081519 68 149 0.0 0.0 0.00 0.00 0.00 100 1016.0
20260901080018 68 149 0.0 0.0 0.00 0.00 0.00 100 1015.9
20260901074511 68 149 0.0 0.0 0.00 0.00 0.00 100 1016.0
20260901073006 68 149 0.0 0.0 0.00 0.00 0.00 100 1016.2
20260901071502 68 149 0.0 0.0 0.00 0.00 0.00 100 1016.3
20260901070103 68 149 0.0 0.0 0.00 0.00 0.00 100 1016.4
20260901064553 68 149 0.0 0.0 0.00 0.00 0.00 100 1016.4
20260901063048 68 149 0.0 0.0 0.00 0.00 0.00 100 1016.5
20260901061544 68 149 0.0 0.0 0.00 0.00 0.00 100 1016.6
20260901060039 68 149 0.0 0.0 0.00 0.00 0.00 100 1017.1
20260901054535 68 149 0.0 0.0 0.00 0.00 0.00 100 1017.2
20260901053030 68 149 0.0 0.0 0.00 0.00 0.00 100 1017.1
20260901051527 68 149 0.0 0.0 0.00 0.00 0.00 100 1017.2
20260901050024 68 149 0.0 0.0 0.00 0.00 0.00 100 1017.0
20260901044518 68 149 0.0 0.0 0.00 0.00 0.00 100 1017.4